Regional Weather Roundup
Issued by NWS

Home | Current Version | Previous Version | Text Only | Print | Product List | Glossary Off
Versions: 1 2 3 4 5 6 7 8 9 10 11 12 13 14 15 16 17 18 19 20 21 22 23 24 25 26 27 28 29 30 31 32 33 34 35 36 37 38 39 40 41 42 43 44 45 46 47 48 49 50

000
ASUS43 KOAX 260002
RWRNE

WEATHER ROUNDUP FOR NEBRASKA
NATIONAL WEATHER SERVICE OMAHA NE
700 PM CDT SAT APR 25 2015

NOTES: SATELLITE DATA IS BEING USED TO AUGMENT CLOUD COVER ABOVE
       12000 FEET.
       "FAIR" INDICATES FEW OR NO CLOUDS BELOW 12,000 FEET WITH NO
       SIGNIFICANT WEATHER AND/OR OBSTRUCTIONS TO VISIBILITY.

  * THESE STATIONS DO NOT REPORT WEATHER SUCH AS RAIN...SNOW OR FOG.

NEZ001>004-019>022-054>056-260100-
NEBRASKA PANHANDLE

CITY           SKY/WX    TMP DP  RH WIND       PRES   REMARKS
SCOTTSBLUFF    CLOUDY    60  39  45 W15       29.72R
6HR MIN TEMP:  60; 6HR MAX TEMP:  72; 6HR PCP: TRACE;

ALLIANCE       LGT RAIN  52  47  83 S8        29.72R
6HR MIN TEMP:  52; 6HR MAX TEMP:  69; 6HR PCP:  0.05;

CHADRON        CLOUDY    54  45  71 NE14      29.69F
6HR MIN TEMP:  52; 6HR MAX TEMP:  69; 6HR PCP:  0.13;

KIMBALL        CLOUDY    53  42  67 W31G40    29.76R
SIDNEY         CLOUDY    54  47  77 NW10      29.74R
6HR MIN TEMP:  53; 6HR MAX TEMP:  69; 6HR PCP:  0.09;

$$

NEZ057>060-069>072-079>082-260100-
SOUTHWEST NEBRASKA

CITY           SKY/WX    TMP DP  RH WIND       PRES   REMARKS
IMPERIAL       MOSUNNY   68  44  42 E12       29.69R
6HR MIN TEMP:  65; 6HR MAX TEMP:  71;

LEXINGTON      SUNNY     56  49  77 E15       29.76R
MCCOOK         MOSUNNY   64  51  62 E14       29.72R
6HR MIN TEMP:  64; 6HR MAX TEMP:  73;

$$

NEZ005>010-023>029-035>040-094-260100-
NORTH CENTRAL NEBRASKA

CITY           SKY/WX    TMP DP  RH WIND       PRES   REMARKS
VALENTINE      PTSUNNY   59  46  62 E18       29.76R
6HR MIN TEMP:  58; 6HR MAX TEMP:  62;

AINSWORTH      CLOUDY    55  47  74 E14       29.78S
BROKEN BOW     CLOUDY    56  46  69 E10       29.77R
6HR MIN TEMP:  55; 6HR MAX TEMP:  60;

ORD            CLOUDY    56  45  66 E12       29.78R
6HR MIN TEMP:  50; 6HR MAX TEMP:  57;

$$

NEZ041-046>049-061>064-073>077-083>087-260100-
SOUTH CENTRAL NEBRASKA

CITY           SKY/WX    TMP DP  RH WIND       PRES   REMARKS
GRAND ISLAND   CLOUDY    51  47  86 NE12      29.79S
6HR MIN TEMP:  48; 6HR MAX TEMP:  51;

AURORA         CLOUDY    50  49  95 NE10      29.79R
HASTINGS       CLOUDY    50  47  89 NE13      29.77R FOG
6HR MIN TEMP:  49; 6HR MAX TEMP:  52;

HEBRON         CLOUDY    51  47  87 NE9       29.76S
HOLDREGE       CLOUDY    52  47  84 NE13      29.76R
KEARNEY *      CLOUDY    52  46  82 NE12      29.78R
YORK           CLOUDY    50  48  93 NE10      29.79R
$$

NEZ011>018-030>034-042>045-260100-
NORTHEAST NEBRASKA

CITY           SKY/WX    TMP DP  RH WIND       PRES   REMARKS
NORFOLK        PTSUNNY   55  44  66 E9        29.80R
6HR MIN TEMP:  49; 6HR MAX TEMP:  59;

ALBION         CLOUDY    55  44  67 E13       29.80R
BLAIR          CLOUDY    51  44  77 NE15      29.79R
COLUMBUS *     CLOUDY    52  41  66 NE12      29.82R
FREMONT        CLOUDY    53  45  73 E12       29.79S
TEKAMAH        CLOUDY    56  46  69 E12       29.80R
6HR MIN TEMP:  50; 6HR MAX TEMP:  56;

WAYNE          CLOUDY    56  43  61 E16       29.81R
$$

NEZ050>053-065>068-078-088>093-260100-
SOUTHEAST NEBRASKA

CITY           SKY/WX    TMP DP  RH WIND       PRES   REMARKS
LINCOLN        CLOUDY    52  46  80 NE15      29.79R
6HR MIN TEMP:  49; 6HR MAX TEMP:  53;

OMAHA EPPLEY   CLOUDY    52  45  77 NE8       29.80R
6HR MIN TEMP:  48; 6HR MAX TEMP:  54; 6HR PCP: TRACE;

BEATRICE       CLOUDY    51  47  86 NE14      29.76R FOG
FALLS CITY     CLOUDY    50  45  83 NE10      29.75R
6HR MIN TEMP:  50; 6HR MAX TEMP:  55; 6HR PCP:  0.01;

NEBRASKA CITY  CLOUDY    49  46  90 NE12      29.78R
PLATTSMOUTH    CLOUDY    49  44  83 NE13      29.79R
$$

NEZ044-045-051>053-067-260100-
OMAHA AREA

CITY           SKY/WX    TMP DP  RH WIND       PRES   REMARKS
OMAHA EPPLEY   CLOUDY    52  45  77 NE8       29.80R
6HR MIN TEMP:  48; 6HR MAX TEMP:  54; 6HR PCP: TRACE;

BLAIR          CLOUDY    51  44  77 NE15      29.79R
FREMONT        CLOUDY    53  45  73 E12       29.79S
MILLARD        CLOUDY    52  45  76 NE8       29.79R
OFFUTT AFB     CLOUDY    51  46  81 NE8       29.78R
PLATTSMOUTH    CLOUDY    49  44  83 NE13      29.79R
WAHOO          CLOUDY    52  45  77 NE13      29.79R
$$



USA.gov is the U.S. government's official web portal to all federal, state and local government web resources and services.